Location: Amsterdam
(30.7274°N, 84.4357°W)
Time: 01:48:59
(UTC+00:00)

Courier 1B Rocket - All Passes

Search period start: 07 February 2026 00:00
Search period end: 17 February 2026 00:00
Orbit: 920 x 1201 km, 28.2° (Epoch: 6 February)

Date Brightness Start Highest point End Pass type
(mag) Time Alt. Az. Time Alt. Az. Time Alt. Az.
7 Feb - 02:00:26 10° SSE 02:01:43 11° SE 02:03:02 10° SE visible
7 Feb - 03:48:17 10° SW 03:54:28 34° SSE 04:01:03 10° E night (unlit)
7 Feb - 05:40:34 10° WSW 05:47:45 65° S 05:55:23 10° E night (unlit)
7 Feb - 07:33:57 10° W 07:41:28 74° S 07:49:18 10° E visible
7 Feb - 09:27:42 10° W 09:35:10 51° SSW 09:42:40 10° SE visible
7 Feb - 11:22:34 10° WSW 11:28:24 23° SSW 11:34:10 10° SSE visible
8 Feb - 02:47:59 10° SSW 02:53:20 25° SSE 02:58:58 10° E visible
8 Feb - 04:39:31 10° WSW 04:46:23 55° SSE 04:53:43 10° E night (unlit)
8 Feb - 06:32:37 10° W 06:39:58 75° S 06:47:44 10° E night (unlit)
8 Feb - 08:26:12 10° W 08:33:43 61° SSW 08:41:25 10° ESE visible
8 Feb - 10:20:27 10° W 10:27:07 31° SSW 10:33:46 10° SSE visible
9 Feb - 01:48:17 10° S 01:52:17 17° SSE 01:56:25 10° ESE visible
9 Feb - 03:38:41 10° SW 03:45:06 44° SSE 03:52:00 10° E night (unlit)
9 Feb - 05:31:24 10° WSW 05:38:30 72° S 05:46:08 10° E night (unlit)
9 Feb - 07:24:49 10° W 07:32:14 69° S 07:39:59 10° ESE visible
9 Feb - 09:18:41 10° W 09:25:47 41° SSW 09:32:59 10° SE visible
9 Feb - 11:14:34 10° WSW 11:18:54 16° SSW 11:23:13 10° S visible
10 Feb - 02:38:05 10° SW 02:43:56 33° SSE 02:50:11 10° E visible
10 Feb - 04:30:17 10° WSW 04:37:07 65° S 04:44:30 10° E night (unlit)
10 Feb - 06:23:31 10° W 06:30:45 73° S 06:38:27 10° E night (unlit)
10 Feb - 08:17:08 10° W 08:24:22 51° SSW 08:31:53 10° SE visible
10 Feb - 10:11:53 10° WSW 10:17:39 23° SSW 10:23:27 10° SSE visible
11 Feb - 01:37:50 10° SSW 01:42:52 24° SSE 01:48:10 10° ESE visible
11 Feb - 03:29:17 10° WSW 03:35:49 55° SSE 03:42:51 10° E visible
11 Feb - 05:22:18 10° W 05:29:18 74° S 05:36:51 10° E night (unlit)
11 Feb - 07:15:44 10° W 07:22:57 60° SSW 07:30:34 10° ESE night (unlit)
11 Feb - 09:09:51 10° W 09:16:21 31° SSW 09:23:00 10° SSE visible
12 Feb - 00:38:10 10° S 00:41:51 16° SSE 00:45:39 10° ESE visible
12 Feb - 02:28:30 10° SW 02:34:37 43° SSE 02:41:11 10° E visible
12 Feb - 04:21:09 10° WSW 04:27:55 71° S 04:35:15 10° E night (unlit)
12 Feb - 06:14:26 10° W 06:21:32 68° S 06:29:06 10° ESE night (unlit)
12 Feb - 08:08:10 10° W 08:15:00 40° SSW 08:22:08 10° SE visible
12 Feb - 10:03:59 10° WSW 10:08:10 15° SSW 10:12:24 10° S visible
13 Feb - 01:27:55 10° SW 01:33:31 32° SSE 01:39:26 10° E visible
13 Feb - 03:20:05 10° WSW 03:26:37 64° S 03:33:39 10° E visible
13 Feb - 05:13:14 10° W 05:20:07 73° S 05:27:34 10° E night (unlit)
13 Feb - 07:06:43 10° W 07:13:39 49° SSW 07:21:00 10° SE night (unlit)
13 Feb - 09:01:22 10° WSW 09:06:54 22° SSW 09:12:35 10° SSE visible
14 Feb - 00:27:40 10° SSW 00:32:30 23° SSE 00:37:30 10° ESE visible
14 Feb - 02:19:08 10° WSW 02:25:23 54° SSE 02:32:04 10° E visible
14 Feb - 04:12:04 10° W 04:18:46 74° S 04:25:59 10° E night (unlit)
14 Feb - 06:05:24 10° W 06:12:17 59° SSW 06:19:40 10° ESE night (unlit)
14 Feb - 07:59:25 10° W 08:05:37 30° SSW 08:12:06 10° SSE night (unlit)
14 Feb - 23:27:59 10° S 23:31:30 16° SSE 23:35:06 10° ESE daylight
15 Feb - 01:18:20 10° SW 01:24:15 42° SSE 01:30:29 10° E visible
15 Feb - 03:10:58 10° WSW 03:17:27 71° S 03:24:25 10° E visible
15 Feb - 05:04:11 10° W 05:10:56 67° S 05:18:13 10° ESE night (unlit)
15 Feb - 06:57:49 10° W 07:04:19 38° SSW 07:11:13 10° SE night (unlit)
15 Feb - 08:53:37 10° WSW 08:57:28 15° SSW 09:01:24 10° S visible
16 Feb - 00:17:44 10° SW 00:23:11 32° SSE 00:28:50 10° E visible
16 Feb - 02:09:56 10° WSW 02:16:13 63° S 02:22:54 10° E visible
16 Feb - 04:03:02 10° W 04:09:37 72° S 04:16:43 10° ESE night (unlit)
16 Feb - 05:56:27 10° W 06:03:02 48° SSW 06:10:06 10° SE night (unlit)
16 Feb - 07:51:02 10° WSW 07:56:13 21° SSW 08:01:37 10° SSE night (unlit)
16 Feb - 23:17:25 10° SSW 23:22:11 23° SSE 23:27:00 10° ESE daylight
